Hatteras, NC

7:35 PM EDT on April 24, 2017 (GMT -0400)
Mitchell

Weather History for KHSE - March, 2013

Change the Weather History Date:

Wednesday, March 20, 2013

  Actual Average Record
Temperature  
Mean Temperature 51 °F 52 °F  
Max Temperature 57 °F 60 °F 77 °F (2012)
Min Temperature 45 °F 45 °F 26 °F (1981)
Degree Days  
Heating Degree Days 14 13  
Month to date heating degree days 300 296  
Since 1 July heating degree days 2032 2220  
Cooling Degree Days 0 0  
Month to date cooling degree days 0 0  
Year to date cooling degree days 0 0  
Growing Degree Days 2 (Base 50)    
Moisture  
Dew Point 26 °F    
Average Humidity 43    
Maximum Humidity 61    
Minimum Humidity 24    
Precipitation  
Precipitation 0.00 in 0.15 in 2.10 in (1895)
Month to date precipitation 1.78 3.02  
Year to date precipitation 11.51 12.28  
Snow  
Snow 0.00 in - - ()
Month to date snowfall 0.0  
Since 1 July snowfall 0.0  
Snow Depth 0.00 in    
Sea Level Pressure  
Sea Level Pressure 29.98 in    
Wind  
Wind Speed 6 mph (NE)    
Max Wind Speed 14 mph    
Max Gust Speed 23 mph    
Visibility 10 miles    
Events      
T = Trace of Precipitation, MM = Missing Value Source: NWS Daily Summary

Daily Weather History Graph

Daily Weather History Graph

Search for Another Location

Airport or City:

Trip Planner

Search our weather history database for the weather conditions in past years. The results will help you decide how hot, cold, wet, or windy it might be!

Date:

Astronomy

Mar. 20, 2013 Rise Set
Actual Time 7:05 AM EDT 7:14 PM EDT
Civil Twilight 6:40 AM EDT 7:39 PM EDT
Nautical Twilight 6:10 AM EDT 8:09 PM EDT
Astronomical Twilight 5:41 AM EDT 8:39 PM EDT
Moon 12:59 PM EDT (3/20) 2:31 AM EDT (3/20)
Length of Visible Light 12h 59m
Length of Day
12h 08m
First Quarter, 59% of the Moon is Illuminated
Mar 20
First Quarter
Mar 27
Full
Apr 3
Last Quarter
Apr 10
New
Apr 18
First Quarter

Hourly Weather History & Observations

Time (EDT) Temp. Dew Point Humidity Pressure Visibility Wind Dir Wind Speed Gust Speed Precip Events Conditions
12:51 AM 57.0 °F 39.9 °F 53% 29.96 in 10.0 mi NW 11.5 mph 18.4 mph N/A   Clear
1:51 AM 55.0 °F 32.0 °F 42% 29.97 in 10.0 mi NNW 10.4 mph 18.4 mph N/A   Clear
2:51 AM 54.0 °F 28.9 °F 38% 29.97 in 10.0 mi NNW 8.1 mph - N/A   Clear
3:51 AM 53.1 °F 26.1 °F 35% 29.97 in 10.0 mi North 8.1 mph - N/A   Clear
4:51 AM 52.0 °F 21.9 °F 31% 29.97 in 10.0 mi North 10.4 mph 20.7 mph N/A   Clear
5:51 AM 51.1 °F 19.0 °F 28% 30.00 in 10.0 mi NNE 9.2 mph - N/A   Clear
6:51 AM 50.0 °F 19.9 °F 31% 30.03 in 10.0 mi Variable 4.6 mph - N/A   Clear
7:51 AM 50.0 °F 23.0 °F 35% 30.04 in 10.0 mi Variable 3.5 mph - N/A   Clear
8:51 AM 53.1 °F 21.0 °F 29% 30.06 in 10.0 mi NNE 5.8 mph - N/A   Clear
9:51 AM 54.0 °F 23.0 °F 30% 30.08 in 10.0 mi Variable 4.6 mph - N/A   Clear
10:51 AM 54.0 °F 23.0 °F 30% 30.09 in 10.0 mi Variable 5.8 mph - N/A   Clear
11:51 AM 55.0 °F 21.9 °F 28% 30.09 in 10.0 mi Variable 4.6 mph - N/A   Clear
12:51 PM 53.1 °F 19.9 °F 27% 30.06 in 10.0 mi Variable 4.6 mph - N/A   Clear
1:51 PM 55.0 °F 19.9 °F 25% 30.04 in 10.0 mi Variable 4.6 mph - N/A   Mostly Cloudy
2:51 PM 54.0 °F 21.0 °F 28% 30.01 in 10.0 mi Variable 5.8 mph - N/A   Overcast
3:51 PM 55.0 °F 21.0 °F 27% 29.97 in 10.0 mi SE 10.4 mph - N/A   Mostly Cloudy
4:51 PM 51.1 °F 25.0 °F 36% 29.94 in 10.0 mi ESE 10.4 mph - N/A   Scattered Clouds
5:51 PM 48.9 °F 28.9 °F 46% 29.92 in 10.0 mi ESE 9.2 mph - N/A   Overcast
6:51 PM 48.9 °F 30.9 °F 50% 29.91 in 10.0 mi SE 5.8 mph - N/A   Overcast
7:51 PM 48.9 °F 35.1 °F 59% 29.91 in 10.0 mi ESE 3.5 mph - N/A   Overcast
8:51 PM 48.9 °F 35.1 °F 59% 29.90 in 10.0 mi East 3.5 mph - N/A   Overcast
9:51 PM 48.0 °F 32.0 °F 54% 29.87 in 10.0 mi NNE 3.5 mph - N/A   Overcast
10:51 PM 46.9 °F 30.9 °F 54% 29.84 in 10.0 mi NE 3.5 mph - N/A   Overcast
11:51 PM 48.0 °F 33.1 °F 56% 29.82 in 10.0 mi Calm Calm - N/A   Overcast